STARLINK-32118, 60280

Orbit data source: Space-Track

STARLINK-32118, 60280 is a payload satellite owned by SpaceX/Seattle (US) in LEO that was launched on Sun, 28 Jul 2024 UTC via an FALCON 9 launch vehicle from the Air Force Eastern Test Range (AFETR). Payload-class satellites include a variety of spacecraft equipped with specific instruments for various scientific and technological missions. These include communications satellites like Starlink; space stations such as the ISS; scientific satellites like the Hubble; Earth observation satellites from companies like Planet Labs, Umbra, and HawkEye 360; GPS; miniature CubeSats for education and research; and military/defense satellites.

Loading next visibility...
Identifier
60280, 2024-132C
Orbit
LEO
Last TLE update
11 hours ago
Origin
Manufacturer
SpaceX/Seattle
Mission
Operational spacecraft
Bus & Motor
STARLINK V2M, Unknown motor
Mass
730 kg wet, ~700 kg dry
Launch date (UTC)
2024-07-28 (11 months ago)
Launch vehicle
FALCON 9
Launch site
Air Force Eastern Test Range (AFETR)
Object type
Payload
Rocket body
Debris
Shape & HBR
Unknown
Radar Cross Section
Large (>1 m²)

Expand to show TLE details & history

TLE from 11 hours ago
0 STARLINK-32118
1 60280U 24132C   25181.90800868  .00000727  00000-0  36668-4 0  9993
2 60280  53.1601 141.7802 0001240  80.0470 280.0671 15.30185072 53018
Epoch: 2025-06-30T21:47Z
TLE epoch observation values (Epoch: 2025-06-30T21:47:31.949Z)
Latitude
-0.00002°
Longitude
-104.31401°
Altitude
476.011 km
Speed
7.629 km/s
True Right ascension
09h 27m 07s
True Declination
0° 00' 00"
Sunlit
Object was in daylight at epoch
Visualization orbit readout
Latitude
53.31233°
Longitude
-16.44221°
Altitude
480.991 km
Speed
7.632 km/s
Apparent Right ascension
11h 40m 06s
Apparent Declination
13° 17' 27"
Sunlit
Object is in daylight
Visualization observer readout
Local Sidereal Time
20:47:38
Azimuth
313.543° NW
Elevation
-23.413°
Doppler factor
1
Orbital elements
Apogee altitude
476.366 km
Perigee altitude
474.666 km
Semi-major axis
6,853.653 km
Eccentricity
0.00012
Inclination
53.1601°
RAAN
141.7802°
Arg. of periapsis
80.047°
True anomaly
Unknown
Mean anomaly
280.0671°
Eccentric anomaly
Unknown
Mean motion
3.82525 °/min
Orbital period
94.11 mins
BSTAR
0.000036668
Loading maneuver chart data...
Loading SW <> Apogee altitude chart data...
Loading historical data...
Loading historical data...
Loading historical data...
Loading historical data...
Loading historical data...
Loading historical data...
Loading historical data...

STARLINK-32118 Visibility forecast

Observer location: undefined°, undefined°

Span
Click to sort rows by Start time (UTC) header in descending order
Start Az.
Max El. time (UTC)
Max El. Az.
Max El.
End time (UTC)
End Az.
5 mins2025-07-01 23:01:24.124Z184.65° SSW2025-07-01 23:04:24.124Z125.75° SE22.626°2025-07-01 23:06:24.124Z83.723° E
5 mins2025-07-02 00:40:24.124Z274.577° WNW2025-07-02 00:42:24.124Z344.676° N31.518°2025-07-02 00:45:24.124Z37.378° NE
4 mins2025-07-02 05:37:24.124Z349.891° N2025-07-02 05:39:24.124Z43.014° NE23.613°2025-07-02 05:41:24.124Z81.737° E
4 mins2025-07-02 07:15:24.124Z279.601° WNW2025-07-02 07:17:24.124Z202.651° SW32.949°2025-07-02 07:19:24.124Z160.079° S
|